Flag for Canada Weather past 2 weeks in Saguenay, Quebec, Canada

Now
28 °F

Chilly.


Feels Like: 28 °F
Forecast: 32 / 48 °F
Wind: 2 mph from South

Location: Jonquiere Airport

Current Time: Oct 23, 2014 at 6:22:30 AM

Latest Report: Oct 23, 2014 at 6:00 AM


Visibility: N/A

Pressure: 30.36 "Hg

Humidity: 98%

Dew point: 27 °F

Location of SaguenayLocation

Historic Weather in Saguenay — Graph

°F

Saguenay temperature yesterday

Maximum temperature yesterday: 47 °F (at 2:00 PM)
Minimum temperature yesterday: 27 °F (at 7:00 AM)
Average temperature yesterday: 36 °F

Past Weeks' High & Low Weather Summary

 TemperatureHumidityPressure
High72 °F (Oct 15, 12:00 AM)100% (Oct 12, 2:00 AM)30.53 "Hg (Oct 12, 2:00 AM)
Low27 °F (Oct 22, 7:00 AM)38% (Oct 13, 4:00 PM)29.36 "Hg (Oct 17, 4:00 PM)
Average46 °F80%29.92 "Hg
* Reported Oct 8 5:00 AM — Oct 23 5:00 AM, Saguenay, Weather by CustomWeather, © 2014

Note: Actual official high and low records may vary slightly from our data, if they occured in-between our weather recording intervals... More about our weather records

Advertising

Saguenay weather history for previous 24 hours

 ConditionsComfort  
Time TempWeatherWind HumidityBarometerVisibility
5:00 AM
Oct 23
27 °FChilly.1 mph98%30.37 "HgN/A
4:00 AM29 °FChilly.3 mph97%30.37 "HgN/A
3:00 AM30 °FChilly.5 mph96%30.39 "HgN/A
2:00 AM32 °FChilly.2 mph90%30.40 "HgN/A
1:00 AM32 °FChilly.3 mph95%30.40 "HgN/A
12:00 AM33 °FChilly.3 mph92%30.41 "HgN/A
11:00 PM
Oct 22
35 °FChilly.5 mph84%30.43 "HgN/A
10:00 PM36 °FChilly.3 mph80%30.43 "HgN/A
9:00 PM38 °FChilly.3 mph78%30.45 "HgN/A
8:00 PM40 °FChilly.3 mph73%30.45 "HgN/A
7:00 PM40 °FQuite cool.5 mph70%30.45 "HgN/A
6:00 PM43 °FQuite cool.3 mph66%30.44 "HgN/A
5:00 PM47 °FCool.3 mph57%30.44 "HgN/A
4:00 PM47 °FCool.6 mph55%30.45 "HgN/A
3:00 PM47 °FCool.7 mph54%30.46 "HgN/A
2:00 PM47 °FCool.9 mph61%30.47 "HgN/A
1:00 PM47 °FCool.10 mph62%30.49 "HgN/A
12:00 PM45 °FQuite cool.5 mph74%30.50 "HgN/A
11:00 AM38 °FChilly.3 mph98%30.52 "HgN/A
10:00 AM34 °FChilly.2 mph98%30.53 "HgN/A
9:00 AM31 °FChilly.1 mph98%30.52 "HgN/A
8:00 AM29 °FChilly.3 mph98%30.50 "HgN/A
7:00 AM27 °FChilly.1 mph98%30.47 "HgN/A
6:00 AM27 °FChilly.3 mph98%30.45 "HgN/A
Weather by CustomWeather, © 2014

See weather overviewHow to use our weather pages